FW6744 Weather Reports


time (UTC)temp
C
wind
direction
speed
KPH
gust
KPH
rain 1hr
cm
rain 24hr
cm
rain mn
cm
humidity
%
barometer
mb
20260508143345 13 63 0.0 1.6 0.00 0.41 0.03 70 1013.2
20260508142838 12 63 0.0 1.6 0.00 0.41 0.03 74 1013.1
20260508142333 12 140 0.0 1.6 0.00 0.41 0.03 72 1013.1
20260508141828 12 208 0.0 1.6 0.00 0.41 0.03 75 1013.1
20260508141322 11 210 0.0 1.6 0.00 0.41 0.03 80 1013.2
20260508141035 11 210 0.0 1.6 0.00 0.41 0.03 82 1013.2
20260508140309 11 210 0.0 1.6 0.00 0.41 0.03 87 1013.2
20260508135803 11 210 0.0 1.6 0.00 0.41 0.03 89 1013.2
20260508135256 11 198 0.0 3.2 0.00 0.41 0.03 92 1013.3
20260508135015 10 198 0.0 3.2 0.00 0.41 0.03 92 1013.3
20260508134439 9 180 0.0 0.0 0.00 0.41 0.03 97 1013.4
20260508134329 10 175 0.0 1.6 0.00 0.41 0.03 95 1013.4
20260508133233 9 180 0.0 0.0 0.00 0.41 0.03 97 1013.4
20260508132727 9 180 0.0 0.0 0.00 0.41 0.03 97 1013.4
20260508132221 9 180 0.0 0.0 0.00 0.41 0.03 97 1013.4
20260508131715 9 180 0.0 0.0 0.00 0.41 0.03 97 1013.3
20260508131209 10 180 0.0 0.0 0.00 0.41 0.03 97 1013.3
20260508130703 10 180 0.0 0.0 0.00 0.41 0.03 97 1013.4
20260508130424 9 180 0.0 0.0 0.00 0.41 0.03 97 1013.3
20260508125651 9 180 0.0 0.0 0.00 0.41 0.03 97 1013.3
20260508125145 9 180 0.0 0.0 0.00 0.41 0.03 97 1013.4
20260508125131 9 180 0.0 0.0 0.00 0.41 0.03 97 1013.3
20260508124358 9 180 0.0 0.0 0.00 0.41 0.03 97 1013.3
20260508123627 8 180 0.0 0.0 0.00 0.41 0.03 97 1013.2
20260508123121 8 180 0.0 0.0 0.00 0.41 0.03 97 1013.1
20260508122615 8 180 0.0 0.0 0.03 0.41 0.03 97 1013.1
20260508122109 8 180 0.0 0.0 0.03 0.41 0.03 97 1013.1
20260508122047 7 180 0.0 0.0 0.03 0.41 0.03 97 1013.0
20260508121319 7 180 0.0 0.0 0.03 0.41 0.03 97 1012.9
20260508120818 7 180 0.0 0.0 0.03 0.41 0.03 97 1012.7
20260508120045 6 180 0.0 0.0 0.03 0.41 0.03 97 1012.6
20260508115539 6 180 0.0 0.0 0.03 0.41 0.03 97 1012.5
20260508115033 6 180 0.0 0.0 0.03 0.41 0.03 97 1012.5
20260508114527 6 180 0.0 0.0 0.03 0.41 0.03 97 1012.3
20260508114249 6 180 0.0 0.0 0.03 0.41 0.03 96 1012.3
20260508113514 6 180 0.0 0.0 0.03 0.41 0.03 96 1012.3
20260508113009 5 180 0.0 0.0 0.00 0.38 0.03 96 1012.2
20260508112504 5 180 0.0 0.0 0.00 0.38 0.00 96 1012.2
20260508111957 5 180 0.0 0.0 0.00 0.38 0.00 96 1012.1
20260508111451 5 180 0.0 0.0 0.00 0.38 0.00 96 1012.0
20260508111204 5 180 0.0 0.0 0.00 0.38 0.00 96 1011.9
20260508110446 5 180 0.0 0.0 0.00 0.38 0.00 96 1011.8
20260508105946 5 180 0.0 0.0 0.00 0.38 0.00 96 1011.7
20260508105445 5 180 0.0 0.0 0.00 0.38 0.00 96 1011.6
20260508104945 5 180 0.0 0.0 0.00 0.38 0.00 96 1011.5
20260508104705 5 180 0.0 0.0 0.00 0.38 0.00 96 1011.4
20260508103943 5 180 0.0 0.0 0.00 0.38 0.00 96 1011.4
20260508103442 5 180 0.0 0.0 0.00 0.38 0.00 96 1011.3
20260508102941 5 180 0.0 0.0 0.00 0.38 0.00 96 1011.3
20260508102443 5 180 0.0 0.0 0.00 0.38 0.00 96 1011.3
20260508101942 5 180 0.0 0.0 0.00 0.38 0.00 96 1011.3
20260508101443 5 180 0.0 0.0 0.00 0.38 0.00 96 1011.2
20260508100939 5 180 0.0 0.0 0.00 0.38 0.00 96 1011.1
20260508100438 6 180 0.0 0.0 0.00 0.38 0.00 96 1011.0
20260508095938 6 180 0.0 0.0 0.00 0.38 0.00 96 1011.0
20260508095439 6 180 0.0 0.0 0.00 0.38 0.00 96 1010.9
20260508094938 6 180 0.0 0.0 0.00 0.38 0.00 96 1010.9
20260508094437 6 180 0.0 0.0 0.00 0.38 0.00 96 1010.8
20260508093939 6 180 0.0 0.0 0.00 0.38 0.00 96 1010.7
20260508093439 6 180 0.0 0.0 0.00 0.38 0.00 96 1010.8
20260508092939 6 180 0.0 0.0 0.00 0.38 0.00 96 1010.6
20260508092436 6 180 0.0 0.0 0.00 0.38 0.00 96 1010.5
20260508091935 6 180 0.0 0.0 0.00 0.38 0.00 96 1010.5
20260508091435 6 180 0.0 0.0 0.00 0.38 0.00 96 1010.4
20260508090934 6 180 0.0 0.0 0.00 0.38 0.00 96 1010.4
20260508090433 6 180 0.0 0.0 0.00 0.38 0.00 96 1010.3
20260508090153 6 180 0.0 0.0 0.00 0.38 0.00 96 1010.3
20260508085924 6 180 0.0 0.0 0.00 0.38 0.00 96 1010.3
20260508084935 6 180 0.0 0.0 0.00 0.38 0.00 96 1010.3
20260508084435 6 180 0.0 0.0 0.00 0.38 0.00 96 1010.2
20260508083929 6 180 0.0 0.0 0.00 0.38 0.00 96 1010.2
20260508083422 6 180 0.0 0.0 0.00 0.38 0.00 96 1010.1
20260508082916 6 180 0.0 0.0 0.00 0.38 0.00 96 1010.0
20260508082411 6 180 0.0 0.0 0.00 0.38 0.00 96 1009.9
20260508082321 7 180 0.0 0.0 0.00 0.38 0.00 96 1009.9
20260508081949 7 180 0.0 0.0 0.00 0.38 0.00 96 1009.9
20260508080852 7 180 0.0 0.0 0.00 0.38 0.00 96 1009.8
20260508080346 7 180 0.0 0.0 0.00 0.38 0.00 96 1009.8
20260508075335 7 180 0.0 0.0 0.00 0.38 0.00 96 1009.7
20260508074828 7 180 0.0 0.0 0.00 0.38 0.00 96 1009.7
20260508074322 7 180 0.0 0.0 0.00 0.38 0.00 96 1009.6
20260508073816 7 180 0.0 0.0 0.00 0.38 0.00 96 1009.6
20260508073310 7 180 0.0 0.0 0.00 0.38 0.00 96 1009.6
20260508072804 7 180 0.0 0.0 0.00 0.38 0.00 96 1009.6
20260508072508 7 180 0.0 0.0 0.00 0.38 0.00 96 1009.4
20260508072350 7 180 0.0 0.0 0.00 0.38 0.00 96 1009.5
20260508071246 7 180 0.0 0.0 0.00 0.38 0.00 96 1009.4
20260508070740 7 180 0.0 0.0 0.00 0.38 0.00 96 1009.3
20260508070233 7 180 0.0 0.0 0.00 0.38 0.00 96 1009.3
20260508065729 7 180 0.0 0.0 0.00 0.38 0.00 96 1009.3
20260508065221 7 180 0.0 0.0 0.00 0.38 0.00 96 1009.3
20260508064716 7 180 0.0 0.0 0.00 0.38 0.00 96 1009.3
20260508064210 7 180 0.0 0.0 0.00 0.38 0.00 96 1009.3
20260508063704 7 180 0.0 0.0 0.00 0.38 0.00 96 1009.3
20260508063158 7 180 0.0 0.0 0.00 0.38 0.00 96 1009.3
20260508062652 7 180 0.0 0.0 0.00 0.38 0.00 95 1009.2
20260508062146 7 180 0.0 0.0 0.00 0.38 0.00 95 1009.2
20260508061639 7 180 0.0 0.0 0.00 0.38 0.00 95 1009.1
20260508061135 7 180 0.0 0.0 0.00 0.38 0.00 95 1009.1
20260508060851 7 180 0.0 0.0 0.00 0.38 0.00 95 1009.0
20260508060122 7 180 0.0 0.0 0.00 0.38 0.00 95 1009.0
20260508055616 7 180 0.0 0.0 0.00 0.38 0.00 95 1008.9
20260508055111 7 180 0.0 0.0 0.00 0.38 0.00 95 1008.9
20260508054604 7 180 0.0 0.0 0.00 0.38 0.00 95 1008.8
20260508054058 7 180 0.0 0.0 0.00 0.38 0.00 95 1008.7
20260508053553 7 180 0.0 0.0 0.00 0.38 0.00 95 1008.8
20260508053306 7 180 0.0 0.0 0.00 0.38 0.00 95 1008.8
20260508052540 7 180 0.0 0.0 0.00 0.38 0.00 95 1008.8
20260508052259 7 180 0.0 0.0 0.00 0.38 0.00 95 1008.9
20260508051537 7 180 0.0 0.0 0.00 0.38 0.00 95 1008.8
20260508051037 7 180 0.0 0.0 0.00 0.38 0.00 95 1008.8
20260508050533 7 180 0.0 0.0 0.00 0.38 0.00 95 1008.8
20260508050031 7 180 0.0 0.0 0.00 0.38 0.00 95 1008.8
20260508045753 7 180 0.0 0.0 0.00 0.38 0.00 95 1008.8
20260508045028 7 180 0.0 0.0 0.00 0.38 0.00 95 1008.7
20260508044526 7 180 0.0 0.0 0.00 0.38 0.00 95 1008.5
20260508044027 7 180 0.0 0.0 0.00 0.38 0.00 95 1008.5
20260508043523 7 180 0.0 0.0 0.00 0.38 0.00 95 1008.4
20260508043240 7 180 0.0 0.0 0.00 0.38 0.00 95 1008.4
20260508042524 8 180 0.0 0.0 0.00 0.38 0.00 95 1008.4
20260508042024 8 180 0.0 0.0 0.00 0.38 0.00 95 1008.5
20260508041523 8 180 0.0 0.0 0.00 0.38 0.00 95 1008.5
20260508041025 8 180 0.0 0.0 0.00 0.38 0.00 95 1008.4
20260508040521 8 180 0.0 0.0 0.00 0.38 0.00 95 1008.4
20260508040021 8 180 0.0 0.0 0.00 0.38 0.00 95 1008.4
20260508035519 8 180 0.0 0.0 0.00 0.38 0.41 95 1008.3
20260508035247 8 180 0.0 0.0 0.00 0.38 0.41 95 1008.3
20260508034511 8 180 0.0 0.0 0.00 0.38 0.41 95 1008.3
20260508034006 8 180 0.0 0.0 0.00 0.38 0.41 95 1008.3
20260508033500 8 180 0.0 0.0 0.00 0.38 0.41 95 1008.2
20260508032953 8 180 0.0 0.0 0.00 0.38 0.41 95 1008.2
20260508032449 8 180 0.0 0.0 0.00 0.38 0.41 95 1008.2
20260508031942 8 180 0.0 0.0 0.00 0.38 0.41 95 1008.2
20260508031435 8 180 0.0 0.0 0.00 0.38 0.41 95 1008.2
20260508030930 8 180 0.0 0.0 0.00 0.38 0.41 95 1008.2
20260508030424 8 180 0.0 0.0 0.00 0.38 0.41 95 1008.2
20260508025918 8 180 0.0 0.0 0.00 0.38 0.41 95 1008.0
20260508025418 8 180 0.0 0.0 0.00 0.38 0.41 95 1008.0
20260508024915 8 180 0.0 0.0 0.00 0.38 0.41 95 1008.0
20260508024413 8 180 0.0 0.0 0.00 0.38 0.41 94 1008.0
20260508023916 8 180 0.0 0.0 0.00 0.38 0.41 94 1008.0
20260508023413 8 180 0.0 0.0 0.00 0.38 0.41 94 1008.0
20260508022912 8 180 0.0 0.0 0.00 0.38 0.41 94 1007.9
20260508022410 8 180 0.0 0.0 0.00 0.38 0.41 94 1008.0
20260508021909 8 180 0.0 0.0 0.00 0.38 0.41 94 1008.0
20260508021627 8 180 0.0 0.0 0.00 0.38 0.41 94 1008.0
20260508021351 8 180 0.0 0.0 0.00 0.38 0.41 94 1008.0
20260508020406 8 180 0.0 0.0 0.00 0.38 0.41 94 1008.0
20260508015905 9 180 0.0 0.0 0.00 0.38 0.41 93 1007.8
20260508015402 9 180 0.0 0.0 0.00 0.38 0.41 94 1007.7
20260508014859 9 180 0.0 0.0 0.00 0.38 0.41 93 1007.5
20260508014618 9 180 0.0 0.0 0.00 0.38 0.41 93 1007.6
20260508014113 9 180 0.0 0.0 0.00 0.38 0.41 93 1007.6
20260508013611 10 180 0.0 0.0 0.00 0.38 0.41 93 1007.7
20260508012855 10 180 0.0 0.0 0.00 0.38 0.41 93 1007.7
20260508012353 10 180 0.0 0.0 0.00 0.38 0.41 93 1007.7
20260508011854 10 180 0.0 0.0 0.00 0.38 0.41 93 1007.7
20260508011347 10 180 0.0 0.0 0.00 0.38 0.41 93 1007.7
20260508010843 10 180 0.0 0.0 0.00 0.38 0.41 93 1007.6
20260508010336 10 180 0.0 0.0 0.00 0.38 0.41 93 1007.6
20260508010055 10 180 0.0 0.0 0.00 0.38 0.41 93 1007.7
20260508005323 10 180 0.0 0.0 0.00 0.38 0.41 93 1007.5
20260508004818 10 180 0.0 0.0 0.00 0.38 0.41 93 1007.5
20260508004312 11 180 0.0 0.0 0.00 0.38 0.41 93 1007.4
20260508003806 11 180 0.0 0.0 0.00 0.38 0.41 93 1007.4
20260508003521 11 180 0.0 0.0 0.00 0.38 0.41 93 1007.4
20260508002755 11 180 0.0 0.0 0.00 0.38 0.41 93 1007.4
20260508002248 11 180 0.0 0.0 0.00 0.38 0.41 93 1007.4
20260508001743 11 180 0.0 0.0 0.00 0.38 0.41 92 1007.3
20260508001236 11 180 0.0 0.0 0.00 0.38 0.41 92 1007.2
20260508000730 11 180 0.0 0.0 0.00 0.38 0.41 92 1007.0
20260508000444 11 180 0.0 0.0 0.00 0.38 0.41 92 1006.9
20260507235718 11 180 0.0 0.0 0.00 0.38 0.41 92 1006.8
20260507235212 11 180 0.0 0.0 0.00 0.38 0.41 92 1006.8
20260507234706 11 180 0.0 0.0 0.00 0.38 0.41 92 1006.7
20260507234200 11 180 0.0 0.0 0.00 0.38 0.41 92 1006.6
20260507233654 11 180 0.0 0.0 0.00 0.38 0.41 92 1006.5
20260507233148 11 180 0.0 0.0 0.00 0.38 0.41 92 1006.6
20260507232642 11 180 0.0 0.0 0.00 0.38 0.41 92 1006.5
20260507232357 11 180 0.0 0.0 0.00 0.38 0.41 92 1006.5
20260507231629 12 180 0.0 0.0 0.00 0.38 0.41 91 1006.3
20260507231124 12 180 0.0 0.0 0.00 0.38 0.41 91 1006.3
20260507230836 12 180 0.0 0.0 0.00 0.38 0.41 91 1006.2
20260507230112 12 180 0.0 0.0 0.00 0.38 0.41 90 1006.2
20260507225826 12 180 0.0 0.0 0.00 0.38 0.41 90 1006.3
20260507225100 12 180 0.0 0.0 0.00 0.38 0.41 90 1006.3
20260507224554 12 180 0.0 0.0 0.00 0.38 0.41 90 1006.3
20260507224048 12 180 0.0 0.0 0.00 0.38 0.41 90 1006.3
20260507223542 12 180 0.0 0.0 0.00 0.38 0.41 90 1006.2
20260507223036 12 180 0.0 0.0 0.00 0.38 0.41 90 1006.4
20260507222530 12 180 0.0 0.0 0.00 0.38 0.41 91 1006.3
20260507222024 12 180 0.0 0.0 0.00 0.38 0.41 91 1006.3
20260507221518 12 180 0.0 0.0 0.00 0.38 0.41 91 1006.4
20260507221012 12 180 0.0 0.0 0.00 0.38 0.41 91 1006.1
20260507220727 12 180 0.0 0.0 0.00 0.38 0.41 90 1006.1
20260507220000 12 180 0.0 0.0 0.00 0.38 0.41 91 1006.2
20260507215454 12 180 0.0 0.0 0.00 0.38 0.41 90 1006.1
20260507214948 12 180 0.0 0.0 0.03 0.38 0.41 90 1006.1
20260507214442 12 180 0.0 0.0 0.05 0.38 0.41 90 1006.3
20260507213936 12 180 0.0 0.0 0.08 0.38 0.41 90 1006.4
20260507213654 12 180 0.0 0.0 0.13 0.38 0.41 90 1006.1
20260507212924 12 180 0.0 0.0 0.15 0.38 0.41 90 1005.9
20260507212418 12 180 0.0 0.0 0.18 0.38 0.41 91 1006.0
20260507211912 12 180 0.0 0.0 0.20 0.38 0.41 91 1006.1
20260507211407 12 180 0.0 0.0 0.23 0.38 0.41 91 1006.1
20260507210901 12 180 0.0 0.0 0.28 0.38 0.41 91 1005.8
20260507210609 11 180 0.0 0.0 0.30 0.38 0.41 91 1006.0
20260507205849 11 180 0.0 0.0 0.30 0.38 0.41 91 1006.2
20260507205342 11 180 0.0 0.0 0.30 0.38 0.41 90 1006.1
20260507204836 11 180 0.0 0.0 0.28 0.36 0.38 89 1006.5
20260507204330 11 180 0.0 0.0 0.25 0.33 0.36 89 1006.7
20260507203824 11 180 0.0 0.0 0.23 0.30 0.33 88 1006.5
20260507203317 11 180 0.0 0.0 0.18 0.25 0.28 87 1006.6
20260507203044 12 180 0.0 0.0 0.15 0.23 0.25 87 1006.5
20260507202315 12 180 0.0 0.0 0.10 0.18 0.23 87 1006.4
20260507201814 12 180 0.0 0.0 0.10 0.18 0.20 86 1006.2
20260507201310 12 180 0.0 0.0 0.08 0.15 0.18 86 1006.2
20260507200808 12 180 0.0 0.0 0.03 0.10 0.13 85 1006.3
20260507200306 12 180 0.0 0.0 0.00 0.08 0.10 84 1006.3
20260507200023 13 180 0.0 0.0 0.00 0.08 0.10 84 1006.7
20260507195306 13 180 0.0 0.0 0.00 0.08 0.10 82 1006.7
20260507194806 13 180 0.0 0.0 0.00 0.08 0.10 82 1006.3
20260507194305 13 180 0.0 0.0 0.00 0.08 0.10 82 1006.4
20260507193805 13 180 0.0 0.0 0.00 0.08 0.10 82 1006.5
20260507193307 13 180 0.0 0.0 0.00 0.08 0.10 80 1006.5
20260507192806 13 180 0.0 0.0 0.00 0.08 0.10 80 1006.8
20260507192305 13 180 0.0 0.0 0.00 0.08 0.10 79 1006.6
20260507191801 13 180 0.0 0.0 0.00 0.08 0.10 77 1007.0
20260507191302 13 180 0.0 1.6 0.00 0.08 0.10 79 1006.9
20260507190802 13 134 0.0 1.6 0.00 0.08 0.10 79 1006.8
20260507190301 13 18 0.0 0.0 0.00 0.08 0.10 77 1006.8
20260507185801 13 18 0.0 1.6 0.00 0.08 0.10 78 1006.7
20260507185305 13 18 0.0 3.2 0.00 0.08 0.10 76 1006.8
20260507184802 13 18 0.0 3.2 0.00 0.08 0.10 77 1006.7
20260507184302 13 218 0.0 1.6 0.00 0.08 0.10 78 1006.8
20260507184024 13 218 0.0 1.6 0.00 0.08 0.10 77 1006.8
20260507183301 13 218 0.0 0.0 0.00 0.08 0.10 78 1007.0
20260507182802 13 218 0.0 1.6 0.00 0.08 0.10 78 1006.9
20260507182301 13 218 0.0 1.6 0.00 0.08 0.10 79 1006.9
20260507181801 13 218 0.0 0.0 0.00 0.08 0.10 80 1007.0
20260507181301 13 218 0.0 0.0 0.00 0.08 0.10 80 1006.9
20260507180805 13 218 0.0 0.0 0.00 0.08 0.10 80 1006.9
20260507180526 13 218 0.0 3.2 0.00 0.08 0.10 79 1006.8
20260507175802 13 218 0.0 3.2 0.00 0.08 0.10 79 1006.9
20260507175254 13 38 0.0 0.0 0.00 0.08 0.10 81 1007.0
20260507174749 13 38 0.0 0.0 0.00 0.08 0.10 82 1007.0
20260507174244 13 38 0.0 0.0 0.00 0.08 0.10 82 1007.1
20260507173738 13 38 0.0 0.0 0.00 0.08 0.10 82 1007.2
20260507173232 13 37 0.0 1.6 0.00 0.08 0.10 83 1007.4
20260507172726 13 37 0.0 1.6 0.00 0.08 0.10 84 1007.3
20260507172220 13 37 0.0 0.0 0.00 0.08 0.10 85 1007.3
20260507171714 13 37 0.0 1.6 0.00 0.08 0.10 85 1007.4
20260507171208 12 37 0.0 1.6 0.00 0.08 0.10 85 1007.6
20260507170701 12 37 0.0 1.6 0.00 0.08 0.10 85 1007.6
20260507170156 12 37 0.0 1.6 0.03 0.08 0.10 85 1007.7
20260507165656 12 37 0.0 1.6 0.03 0.08 0.10 86 1007.8
20260507165157 12 34 0.0 1.6 0.03 0.08 0.10 86 1007.8
20260507164658 12 34 0.0 1.6 0.03 0.08 0.10 86 1007.8
20260507164154 12 46 0.0 1.6 0.03 0.08 0.10 88 1007.8
20260507163653 12 46 0.0 1.6 0.03 0.08 0.10 88 1007.9
20260507163151 12 44 0.0 1.6 0.05 0.08 0.10 89 1008.0
20260507162648 12 44 0.0 1.6 0.05 0.08 0.10 89 1008.1
20260507162147 12 49 0.0 1.6 0.08 0.08 0.10 90 1007.9
20260507161914 12 49 0.0 1.6 0.08 0.08 0.10 90 1008.0
20260507161143 12 49 0.0 1.6 0.08 0.08 0.10 89 1008.0
20260507160640 12 49 0.0 1.6 0.08 0.08 0.10 89 1008.1
20260507160141 12 49 0.0 1.6 0.05 0.05 0.08 89 1008.1
20260507155642 12 50 0.0 1.6 0.05 0.05 0.08 89 1008.2
20260507155143 12 83 0.0 1.6 0.05 0.05 0.08 89 1008.1
20260507154640 12 95 0.0 1.6 0.05 0.05 0.08 87 1008.0
20260507154138 12 95 0.0 1.6 0.05 0.05 0.08 86 1008.3
20260507153848 12 96 0.0 1.6 0.03 0.03 0.05 84 1008.0
20260507153733 12 96 0.0 1.6 0.05 0.05 0.08 85 1008.3
20260507152633 13 319 0.0 1.6 0.03 0.03 0.05 83 1008.1
20260507152127 13 38 0.0 1.6 0.00 0.00 0.05 81 1007.9
20260507152116 13 38 0.0 1.6 0.00 0.00 0.03 80 1008.0
20260507151336 13 32 0.0 1.6 0.00 0.00 0.03 79 1007.9
20260507150609 13 30 0.0 4.8 0.00 0.00 0.03 78 1008.2
20260507150329 13 23 0.0 4.8 0.00 0.00 0.03 77 1008.3
20260507150048 13 52 0.0 6.4 0.00 0.00 0.03 78 1008.0
20260507145052 13 215 0.0 6.4 0.00 0.00 0.03 78 1008.0
20260507144545 13 35 0.0 3.2 0.00 0.00 0.03 78 1007.7
20260507144039 13 27 0.0 3.2 0.00 0.00 0.03 78 1007.7
20260507143534 14 32 0.0 3.2 0.00 0.00 0.03 78 1007.8